GIA134 WADD-WAAA

Flight info

Callsign GIA134
Flight time N/A
Altitude 37000
Route PEDET W41 LIPOT
Aircraft B744/H-SDE3FGHIM1M2RWXY/LB1

Departure

Time 2026-05-06 23:21
Airport Denpasar I Gusti Ngurah Rai International Airport (WADD)

Arrival

Time N/A
Airport Sultan Hasanuddin International Airport (WAAA)
Time Latitude Longitude Altitude Speed Heading
2026-05-06 23:07 -8.74661 115.17137 26 ft 0 kts 268°
2026-05-06 23:10 -8.74663 115.17087 26 ft 16 kts 268°
2026-05-06 23:10 -8.74670 115.16924 26 ft 31 kts 268°
2026-05-06 23:11 -8.74680 115.16685 26 ft 33 kts 268°
2026-05-06 23:11 -8.74689 115.16463 26 ft 30 kts 268°
2026-05-06 23:11 -8.74698 115.16262 26 ft 27 kts 268°
2026-05-06 23:11 -8.74705 115.16081 26 ft 24 kts 268°
2026-05-06 23:12 -8.74712 115.15918 26 ft 22 kts 268°
2026-05-06 23:12 -8.74719 115.15760 26 ft 24 kts 268°
2026-05-06 23:12 -8.74728 115.15544 26 ft 36 kts 267°
2026-05-06 23:12 -8.74750 115.15390 26 ft 1 kts 237°
2026-05-06 23:13 -8.74736 115.15420 26 ft 0 kts 232°
2026-05-06 23:13 -8.74755 115.15397 26 ft 5 kts 225°
2026-05-06 23:13 -8.74781 115.15372 26 ft 5 kts 219°
2026-05-06 23:13 -8.74810 115.15358 26 ft 5 kts 155°
2026-05-06 23:14 -8.74837 115.15383 26 ft 7 kts 137°
2026-05-06 23:14 -8.74871 115.15414 26 ft 7 kts 137°
2026-05-06 23:14 -8.74896 115.15452 26 ft 6 kts 104°
2026-05-06 23:14 -8.74895 115.15486 26 ft 0 kts 87°
2026-05-06 23:18 -8.74892 115.15516 26 ft 7 kts 88°
2026-05-06 23:19 -8.74890 115.15566 26 ft 7 kts 88°
2026-05-06 23:19 -8.74889 115.15603 26 ft 0 kts 88°
2026-05-06 23:20 -8.74885 115.15717 27 ft 43 kts 88°
2026-05-06 23:20 -8.74864 115.16228 27 ft 101 kts 87°
2026-05-06 23:20 -8.74827 115.17102 31 ft 145 kts 88°
2026-05-06 23:21 -8.74787 115.18149 346 ft 148 kts 88°
2026-05-06 23:21 -8.74746 115.19229 880 ft 169 kts 88°
2026-05-06 23:21 -8.74700 115.20418 2254 ft 167 kts 88°
2026-05-06 23:21 -8.74654 115.21606 3418 ft 173 kts 88°
2026-05-06 23:22 -8.74605 115.22898 4206 ft 196 kts 87°
2026-05-06 23:22 -8.74550 115.24347 4830 ft 222 kts 86°
2026-05-06 23:22 -8.74483 115.26023 5124 ft 257 kts 86°
2026-05-06 23:22 -8.74405 115.27973 5602 ft 285 kts 86°
2026-05-06 23:23 -8.74320 115.30017 6536 ft 297 kts 86°
2026-05-06 23:23 -8.74235 115.32079 7705 ft 295 kts 87°
2026-05-06 23:23 -8.74146 115.34213 8642 ft 300 kts 87°
2026-05-06 23:23 -8.74057 115.36341 8829 ft 305 kts 87°
2026-05-06 23:24 -8.73968 115.38482 8980 ft 306 kts 87°
2026-05-06 23:24 -8.73878 115.40628 9001 ft 305 kts 87°
2026-05-06 23:24 -8.73788 115.42771 9001 ft 305 kts 87°
2026-05-06 23:24 -8.73698 115.44915 8999 ft 305 kts 87°
2026-05-06 23:25 -8.73608 115.47059 9000 ft 305 kts 87°
2026-05-06 23:25 -8.73462 115.49197 8982 ft 305 kts 79°
2026-05-06 23:25 -8.72677 115.51167 9003 ft 303 kts 58°
2026-05-06 23:25 -8.71438 115.52883 9009 ft 302 kts 50°
2026-05-06 23:26 -8.70062 115.54474 9003 ft 300 kts 44°
2026-05-06 23:26 -8.68601 115.55970 9000 ft 299 kts 41°
2026-05-06 23:26 -8.67175 115.57502 9158 ft 299 kts 49°
2026-05-06 23:26 -8.66079 115.59298 10033 ft 301 kts 58°
2026-05-06 23:27 -8.65081 115.61189 11000 ft 309 kts 60°
2026-05-06 23:27 -8.64086 115.63130 11987 ft 313 kts 60°
2026-05-06 23:27 -8.63083 115.65099 12942 ft 318 kts 60°
2026-05-06 23:27 -8.62062 115.67102 13872 ft 323 kts 60°
2026-05-06 23:28 -8.61024 115.69137 14781 ft 328 kts 60°
2026-05-06 23:28 -8.59973 115.71198 15664 ft 333 kts 60°
2026-05-06 23:28 -8.58908 115.73287 16526 ft 337 kts 60°
2026-05-06 23:28 -8.57825 115.75409 17371 ft 342 kts 60°
2026-05-06 23:29 -8.56713 115.77587 18208 ft 346 kts 60°
2026-05-06 23:29 -8.55617 115.79734 19004 ft 351 kts 60°
2026-05-06 23:29 -8.54491 115.81939 19793 ft 355 kts 60°
2026-05-06 23:29 -8.53353 115.84168 20570 ft 359 kts 60°
2026-05-06 23:30 -8.52202 115.86427 21332 ft 363 kts 61°
2026-05-06 23:30 -8.51040 115.88707 22081 ft 367 kts 61°
2026-05-06 23:30 -8.49862 115.91017 22817 ft 371 kts 61°
2026-05-06 23:30 -8.48673 115.93344 23538 ft 376 kts 61°
2026-05-06 23:31 -8.47466 115.95704 24249 ft 380 kts 61°
2026-05-06 23:31 -8.46248 115.98085 24944 ft 384 kts 61°
2026-05-06 23:31 -8.45017 116.00490 25624 ft 387 kts 61°
2026-05-06 23:31 -8.43773 116.02922 26279 ft 391 kts 61°
2026-05-06 23:32 -8.42517 116.05376 26911 ft 395 kts 61°
2026-05-06 23:32 -8.41247 116.07857 27521 ft 399 kts 61°
2026-05-06 23:32 -8.39964 116.10363 28112 ft 403 kts 61°
2026-05-06 23:32 -8.38668 116.12894 28682 ft 406 kts 61°
2026-05-06 23:33 -8.37454 116.15441 29217 ft 411 kts 65°
2026-05-06 23:33 -8.36379 116.18127 29753 ft 414 kts 68°
2026-05-06 23:33 -8.35381 116.20868 30270 ft 418 kts 69°
2026-05-06 23:33 -8.34360 116.23637 30771 ft 421 kts 68°
2026-05-06 23:34 -8.33314 116.26406 31247 ft 424 kts 68°
2026-05-06 23:34 -8.32252 116.29197 31714 ft 427 kts 68°
2026-05-06 23:34 -8.31185 116.32001 32165 ft 430 kts 68°
2026-05-06 23:34 -8.30112 116.34832 32604 ft 433 kts 68°
2026-05-06 23:35 -8.29028 116.37685 33028 ft 436 kts 68°
2026-05-06 23:35 -8.27938 116.40553 33438 ft 439 kts 68°
2026-05-06 23:35 -8.26841 116.43434 33837 ft 441 kts 68°
2026-05-06 23:35 -8.25735 116.46338 34222 ft 444 kts 68°
2026-05-06 23:36 -8.24623 116.49259 34598 ft 447 kts 68°
2026-05-06 23:36 -8.23504 116.52196 34962 ft 449 kts 67°
2026-05-06 23:36 -8.22060 116.54975 35260 ft 448 kts 52°
2026-05-06 23:36 -8.19899 116.57220 35567 ft 445 kts 34°
2026-05-06 23:37 -8.17219 116.58733 35867 ft 441 kts 18°
2026-05-06 23:37 -8.14279 116.59588 36170 ft 440 kts
2026-05-06 23:37 -8.11273 116.60190 36462 ft 442 kts
2026-05-06 23:37 -8.08233 116.60668 36773 ft 443 kts
2026-05-06 23:38 -8.05164 116.61000 36965 ft 444 kts
2026-05-06 23:38 -7.98994 116.61397 37000 ft 444 kts 360°
2026-05-06 23:39 -7.92820 116.61743 37000 ft 444 kts
2026-05-06 23:39 -7.86661 116.62104 37000 ft 443 kts
2026-05-06 23:40 -7.80923 116.62445 37000 ft 444 kts
2026-05-06 23:40 -7.74759 116.62812 37000 ft 444 kts
2026-05-06 23:41 -7.68594 116.63179 37000 ft 444 kts
2026-05-06 23:41 -7.62438 116.63546 37000 ft 444 kts
2026-05-06 23:42 -7.56312 116.63917 36999 ft 444 kts
2026-05-06 23:42 -7.53302 116.64615 37005 ft 447 kts 19°
2026-05-06 23:42 -7.50574 116.66159 37006 ft 452 kts 33°
2026-05-06 23:43 -7.45831 116.70405 36981 ft 460 kts 44°
2026-05-06 23:43 -7.41621 116.75288 36989 ft 462 kts 49°
2026-05-06 23:44 -7.37540 116.80288 37012 ft 462 kts 48°
2026-05-06 23:44 -7.33418 116.85251 37000 ft 462 kts 48°
2026-05-06 23:45 -7.29280 116.90197 37000 ft 462 kts 47°
2026-05-06 23:45 -7.25138 116.95147 37000 ft 462 kts 47°
2026-05-06 23:46 -7.21069 117.00001 37000 ft 462 kts 47°
2026-05-06 23:46 -7.16892 117.04977 37000 ft 462 kts 47°
2026-05-06 23:47 -7.12710 117.09957 37000 ft 462 kts 47°
2026-05-06 23:47 -7.08565 117.14890 37000 ft 462 kts 47°
2026-05-06 23:48 -7.04386 117.19863 37000 ft 462 kts 47°
2026-05-06 23:48 -7.00240 117.24795 37000 ft 462 kts 47°
2026-05-06 23:49 -6.96091 117.29728 37000 ft 462 kts 47°
2026-05-06 23:49 -6.91944 117.34658 37000 ft 462 kts 47°
2026-05-06 23:50 -6.87793 117.39595 37000 ft 462 kts 47°
2026-05-06 23:50 -6.81571 117.46990 37000 ft 462 kts 47°
2026-05-06 23:51 -6.77422 117.51916 37000 ft 461 kts 47°
2026-05-06 23:51 -6.73270 117.56844 37000 ft 461 kts 47°
2026-05-06 23:52 -6.69097 117.61755 36996 ft 461 kts 44°
2026-05-06 23:52 -6.64330 117.65971 37001 ft 459 kts 35°
2026-05-06 23:53 -6.59200 117.69772 37000 ft 457 kts 33°
2026-05-06 23:53 -6.54072 117.73554 37000 ft 457 kts 34°
2026-05-06 23:54 -6.48965 117.77369 37000 ft 457 kts 34°
2026-05-06 23:54 -6.43867 117.81190 37000 ft 457 kts 34°
2026-05-06 23:55 -6.38773 117.85016 37000 ft 457 kts 34°
2026-05-06 23:55 -6.34536 117.88200 37000 ft 457 kts 34°
2026-05-06 23:56 -6.29437 117.92029 37000 ft 457 kts 34°
2026-05-06 23:56 -6.24331 117.95861 37000 ft 457 kts 34°
2026-05-06 23:57 -6.19236 117.99688 37000 ft 457 kts 34°
2026-05-06 23:57 -6.14139 118.03511 37000 ft 457 kts 34°
2026-05-06 23:58 -6.09039 118.07335 37000 ft 457 kts 34°
2026-05-06 23:58 -6.03977 118.11130 37000 ft 457 kts 34°
2026-05-06 23:59 -5.98908 118.14995 36996 ft 458 kts 38°
2026-05-06 23:59 -5.94347 118.19479 37000 ft 460 kts 45°
2026-05-07 00:00 -5.90040 118.24239 37000 ft 461 kts 45°
2026-05-07 00:00 -5.85696 118.28973 37000 ft 461 kts 45°
2026-05-07 00:01 -5.81331 118.33687 37000 ft 461 kts 45°
2026-05-07 00:01 -5.76958 118.38400 37000 ft 461 kts 45°
2026-05-07 00:02 -5.72589 118.43105 37000 ft 461 kts 45°
2026-05-07 00:02 -5.68213 118.47816 37000 ft 461 kts 45°
2026-05-07 00:03 -5.63844 118.52524 37000 ft 461 kts 45°
2026-05-07 00:03 -5.59479 118.57229 37000 ft 461 kts 45°
2026-05-07 00:04 -5.55105 118.61940 37000 ft 461 kts 45°
2026-05-07 00:04 -5.50735 118.66646 37000 ft 461 kts 45°
2026-05-07 00:05 -5.46370 118.71346 37000 ft 461 kts 45°
2026-05-07 00:05 -5.42001 118.76053 37000 ft 461 kts 45°
2026-05-07 00:06 -5.37630 118.80756 37000 ft 461 kts 45°
2026-05-07 00:06 -5.33263 118.85462 37000 ft 461 kts 45°
2026-05-07 00:07 -5.28893 118.90170 37000 ft 461 kts 45°
2026-05-07 00:07 -5.24521 118.94876 37000 ft 461 kts 45°
2026-05-07 00:08 -5.20179 118.99549 37000 ft 461 kts 45°
2026-05-07 00:08 -5.15784 119.04221 36990 ft 460 kts 39°
2026-05-07 00:09 -5.13183 119.06042 37002 ft 456 kts 27°
2026-05-07 00:09 -5.10380 119.07538 36997 ft 455 kts 22°
2026-05-07 00:09 -5.04461 119.09666 37000 ft 450 kts 13°
2026-05-07 00:10 -4.98494 119.11567 37000 ft 450 kts 15°
2026-05-07 00:10 -4.92553 119.13552 37000 ft 450 kts 15°
2026-05-07 00:11 -4.86611 119.15521 37000 ft 450 kts 15°
2026-05-07 00:11 -4.80664 119.17493 37000 ft 450 kts 15°
2026-05-07 00:12 -4.74737 119.19517 36983 ft 451 kts 21°
2026-05-07 00:12 -4.72084 119.21197 37008 ft 455 kts 38°
2026-05-07 00:12 -4.69990 119.23582 37011 ft 459 kts 55°
2026-05-07 00:13 -4.68552 119.26450 37018 ft 464 kts 66°
2026-05-07 00:13 -4.67617 119.29559 37002 ft 467 kts 77°
2026-05-07 00:13 -4.66911 119.35988 37002 ft 468 kts 88°
2026-05-07 00:14 -4.66757 119.42509 37000 ft 468 kts 88°
2026-05-07 00:14 -4.66462 119.49025 37000 ft 468 kts 87°
2026-05-07 00:15 -4.66572 119.52269 36983 ft 467 kts 100°
2026-05-07 00:15 -4.67542 119.55358 37003 ft 466 kts 116°
2026-05-07 00:15 -4.70588 119.61057 37006 ft 463 kts 132°
2026-05-07 00:16 -4.72964 119.63202 36991 ft 460 kts 149°
2026-05-07 00:16 -4.75817 119.64585 37001 ft 454 kts 165°
2026-05-07 00:16 -4.78898 119.65099 37001 ft 447 kts 182°
2026-05-07 00:16 -4.81963 119.64782 37018 ft 441 kts 191°
2026-05-07 00:17 -4.85019 119.64614 37012 ft 441 kts 179°
2026-05-07 00:17 -4.88084 119.64760 36976 ft 439 kts 188°
2026-05-07 00:17 -4.91052 119.64121 37007 ft 437 kts 200°
2026-05-07 00:17 -4.93967 119.63224 36999 ft 437 kts 203°
2026-05-07 00:18 -4.96708 119.61958 36993 ft 432 kts 214°
2026-05-07 00:18 -4.99154 119.60227 36987 ft 430 kts 216°
2026-05-07 00:18 -5.04300 119.57199 36999 ft 429 kts 212°
2026-05-07 00:19 -5.09507 119.54255 37000 ft 430 kts 213°
2026-05-07 00:19 -5.14690 119.51262 37000 ft 430 kts 213°
2026-05-07 00:20 -5.19878 119.48268 37000 ft 430 kts 213°
2026-05-07 00:20 -5.24782 119.44895 37006 ft 426 kts 228°
2026-05-07 00:21 -5.28185 119.40794 36842 ft 423 kts 233°
2026-05-07 00:21 -5.30011 119.38490 36437 ft 417 kts 233°
2026-05-07 00:21 -5.31802 119.36221 35920 ft 414 kts 233°
2026-05-07 00:22 -5.33563 119.33991 35417 ft 411 kts 233°
2026-05-07 00:22 -5.35353 119.31724 34928 ft 408 kts 233°
2026-05-07 00:22 -5.37108 119.29503 34450 ft 404 kts 233°
2026-05-07 00:22 -5.38843 119.27306 33972 ft 401 kts 233°
2026-05-07 00:23 -5.40388 119.25037 33472 ft 394 kts 246°
2026-05-07 00:23 -5.41154 119.22431 32946 ft 389 kts 264°
2026-05-07 00:23 -5.40994 119.19711 32417 ft 386 kts 283°
2026-05-07 00:23 -5.39938 119.17249 31913 ft 386 kts 302°
2026-05-07 00:24 -5.38107 119.15283 31411 ft 388 kts 320°
2026-05-07 00:24 -5.35744 119.14047 30916 ft 392 kts 339°
2026-05-07 00:24 -5.33044 119.13602 30450 ft 395 kts 353°
2026-05-07 00:24 -5.30297 119.13779 29985 ft 396 kts
2026-05-07 00:25 -5.27576 119.14106 29527 ft 393 kts
2026-05-07 00:25 -5.24866 119.14460 29053 ft 391 kts
2026-05-07 00:25 -5.22175 119.14811 28602 ft 388 kts
2026-05-07 00:25 -5.19510 119.15156 28153 ft 385 kts
2026-05-07 00:26 -5.16824 119.15502 27698 ft 383 kts
2026-05-07 00:26 -5.14228 119.15836 27259 ft 380 kts
2026-05-07 00:26 -5.11615 119.16171 26814 ft 377 kts
2026-05-07 00:26 -5.09019 119.16503 26372 ft 374 kts
2026-05-07 00:27 -5.06444 119.16833 25930 ft 372 kts
2026-05-07 00:27 -5.03885 119.17160 25492 ft 369 kts
2026-05-07 00:27 -5.01344 119.17485 25055 ft 367 kts
2026-05-07 00:27 -4.98819 119.17808 24620 ft 364 kts
2026-05-07 00:28 -4.96315 119.18128 24188 ft 362 kts
2026-05-07 00:28 -4.93827 119.18446 23757 ft 359 kts
2026-05-07 00:28 -4.91359 119.18762 23329 ft 357 kts
2026-05-07 00:28 -4.88905 119.19076 22878 ft 351 kts
2026-05-07 00:29 -4.86494 119.19383 22256 ft 349 kts
2026-05-07 00:29 -4.84091 119.19690 21589 ft 347 kts
2026-05-07 00:30 -4.77004 119.20596 19803 ft 338 kts
2026-05-07 00:30 -4.74685 119.20892 19213 ft 334 kts
2026-05-07 00:30 -4.72386 119.21185 18625 ft 331 kts
2026-05-07 00:30 -4.70109 119.21476 18041 ft 328 kts
2026-05-07 00:31 -4.67855 119.21764 17461 ft 326 kts
2026-05-07 00:31 -4.65646 119.22302 16813 ft 331 kts 20°
2026-05-07 00:31 -4.63764 119.23636 16215 ft 335 kts 43°
2026-05-07 00:31 -4.62507 119.25586 15619 ft 336 kts 65°
2026-05-07 00:32 -4.62049 119.27863 15002 ft 334 kts 88°
2026-05-07 00:32 -4.62454 119.30126 14387 ft 329 kts 111°
2026-05-07 00:32 -4.63643 119.32042 13775 ft 321 kts 134°
2026-05-07 00:32 -4.65414 119.33324 13167 ft 311 kts 158°
2026-05-07 00:33 -4.67473 119.33818 12575 ft 301 kts 178°
2026-05-07 00:33 -4.69541 119.33806 12008 ft 296 kts 187°
2026-05-07 00:33 -4.71578 119.33611 11467 ft 292 kts 191°
2026-05-07 00:33 -4.73581 119.33337 10923 ft 289 kts 192°
2026-05-07 00:34 -4.75563 119.33030 10385 ft 287 kts 193°
2026-05-07 00:34 -4.77517 119.32720 9855 ft 285 kts 193°
2026-05-07 00:34 -4.79520 119.32558 9373 ft 291 kts 179°
2026-05-07 00:34 -4.81451 119.33203 8988 ft 297 kts 153°
2026-05-07 00:35 -4.82956 119.34617 8617 ft 300 kts 129°
2026-05-07 00:35 -4.83876 119.36464 8266 ft 300 kts 113°
2026-05-07 00:35 -4.84403 119.38487 7891 ft 299 kts 105°
2026-05-07 00:35 -4.84855 119.40525 7516 ft 299 kts 103°
2026-05-07 00:36 -4.85285 119.42587 7160 ft 297 kts 103°
2026-05-07 00:36 -4.85704 119.44612 6814 ft 296 kts 102°
2026-05-07 00:36 -4.86120 119.46628 6470 ft 294 kts 102°
2026-05-07 00:36 -4.86534 119.48627 6165 ft 291 kts 102°
2026-05-07 00:37 -4.86937 119.50577 5866 ft 288 kts 102°